Weather History for TNCM - November, 2012

Change the Weather History Date:

Monday, November 12, 2012

  Actual Average Record
Temperature  
Mean Temperature 81 °F -  
Max Temperature 85 °F 83 °F - ()
Min Temperature 77 °F 74 °F - ()
Cooling Degree Days 16    
Growing Degree Days 31 (Base 50)    
Moisture  
Dew Point 73 °F    
Average Humidity 74    
Maximum Humidity 94    
Minimum Humidity 55    
Precipitation  
Precipitation 0.35 in 0.15 in - ()
Sea Level Pressure  
Sea Level Pressure 29.90 in    
Wind  
Wind Speed 7 mph ()    
Max Wind Speed 18 mph    
Max Gust Speed -    
Visibility 6.4 miles    
Events Rain    
T = Trace of Precipitation, MM = Missing Value Source: Averaged Metar Reports

Daily Weather History Graph

Daily Weather History Graph

Search for Another Location

Airport or City:

Trip Planner

Search our weather history database for the weather conditions in past years. The results will help you decide how hot, cold, wet, or windy it might be!

Date:

Astronomy

Nov. 12, 2012 Rise Set
Actual Time 6:16 AM AST 5:36 PM AST
Civil Twilight 5:54 AM AST 5:58 PM AST
Nautical Twilight 5:27 AM AST 6:25 PM AST
Astronomical Twilight 5:01 AM AST 6:51 PM AST
Moon 4:45 AM AST (11/12) 4:33 PM AST (11/12)
Length of Visible Light 12h 04m
Length of Day
11h 19m
Waning Crescent, 2% of the Moon is Illuminated
Nov 12
Waning Crescent
Nov 13
New
Nov 20
First Quarter
Nov 28
Full
Dec 6
Last Quarter

Hourly Weather History & Observations

Time (AST) Temp. Heat Index Dew Point Humidity Pressure Visibility Wind Dir Wind Speed Gust Speed Precip Events Conditions
12:00 AM 80.6 °F 86.2 °F 75.2 °F 84% 29.92 in 6.2 mi ENE 4.6 mph - N/A Rain Light Rain Showers
1:00 AM 80.6 °F 86.2 °F 75.2 °F 84% 29.89 in 6.2 mi ESE 5.8 mph - N/A   Partly Cloudy
2:00 AM 80 °F - 74 °F 77% 29.90 in 25 mi ESE 3.5 mph - -   Partly Cloudy
2:00 AM 80.6 °F 85.4 °F 73.4 °F 79% 29.89 in 6.2 mi Variable 3.5 mph - N/A   Mostly Cloudy
3:00 AM 80.6 °F 85.4 °F 73.4 °F 79% 29.89 in 6.2 mi East 4.6 mph - N/A   Mostly Cloudy
4:00 AM 80.6 °F 85.4 °F 73.4 °F 79% 29.89 in 6.2 mi East 6.9 mph - N/A   Scattered Clouds
5:00 AM 81 °F - 74 °F 72% 29.89 in 25 mi East 6.9 mph - -   Scattered Clouds
5:00 AM 80.6 °F 85.4 °F 73.4 °F 79% 29.89 in 6.2 mi East 5.8 mph - N/A   Partly Cloudy
6:00 AM 80.6 °F 86.2 °F 75.2 °F 84% 29.89 in 6.2 mi East 10.4 mph - N/A   Partly Cloudy
7:00 AM 80.6 °F 86.2 °F 75.2 °F 84% 29.92 in 6.2 mi East 11.5 mph - N/A   Partly Cloudy
8:00 AM 81 °F - 74 °F 75% 29.95 in 12 mi ESE 10.4 mph - - Rain Light Rain Showers
8:00 AM 80.6 °F 86.2 °F 75.2 °F 84% 29.95 in 6.2 mi ESE 10.4 mph - N/A Rain Light Rain Showers
9:00 AM 77.0 °F - 75.2 °F 94% 29.98 in 5.6 mi East 18.4 mph - N/A Rain Rain Showers
10:00 AM 82.4 °F 89.5 °F 75.2 °F 79% 29.98 in 6.2 mi ESE 13.8 mph - N/A   Unknown
11:00 AM 83 °F - 71 °F 59% 29.96 in 25 mi ESE 9.2 mph - -   Partly Cloudy
11:00 AM 82.4 °F 87.2 °F 71.6 °F 70% 29.95 in 6.2 mi ESE 9.2 mph - N/A   Unknown
12:00 PM 84.2 °F 90.9 °F 73.4 °F 70% 29.89 in 6.2 mi ESE 11.5 mph - N/A   Unknown
1:00 PM 84.2 °F 89.6 °F 71.6 °F 66% 29.86 in 6.2 mi ESE 9.2 mph - N/A   Unknown
2:00 PM 84 °F - 70 °F 55% 29.88 in 25 mi SE 10.4 mph - -   Partly Cloudy
2:00 PM 84.2 °F 88.4 °F 69.8 °F 62% 29.86 in 6.2 mi SE 10.4 mph - N/A   Partly Cloudy
3:00 PM 84.2 °F 88.4 °F 69.8 °F 62% 29.86 in 6.2 mi SE 8.1 mph - N/A   Partly Cloudy
4:00 PM 82.4 °F 87.2 °F 71.6 °F 70% 29.86 in 6.2 mi ESE 6.9 mph - N/A   Partly Cloudy
5:00 PM 82 °F - 72 °F 63% 29.87 in 28 mi ESE 6.9 mph - -   Partly Cloudy
5:00 PM 82.4 °F 87.2 °F 71.6 °F 70% 29.86 in 6.2 mi ESE 6.9 mph - N/A   Scattered Clouds
6:00 PM 82.4 °F 88.2 °F 73.4 °F 74% 29.86 in 6.2 mi ESE 10.4 mph - N/A   Scattered Clouds
7:00 PM 82.4 °F 88.2 °F 73.4 °F 74% 29.89 in 6.2 mi East 10.4 mph - N/A   Scattered Clouds
8:00 PM 82 °F - 73 °F 67% 29.92 in 22 mi East 8.1 mph - -   Scattered Clouds
8:00 PM 82.4 °F 88.2 °F 73.4 °F 74% 29.92 in 6.2 mi East 8.1 mph - N/A   Partly Cloudy
9:00 PM 82.4 °F 88.2 °F 73.4 °F 74% 29.92 in 6.2 mi East 9.2 mph - N/A   Scattered Clouds
10:00 PM 80.6 °F 85.4 °F 73.4 °F 79% 29.89 in 6.2 mi East 10.4 mph - N/A   Scattered Clouds
11:00 PM 80 °F - 74 °F 77% 29.93 in 22 mi East 9.2 mph - - Rain Light Rain Showers
11:00 PM 80.6 °F 85.4 °F 73.4 °F 79% 29.92 in 6.2 mi East 9.2 mph - N/A   Scattered Clouds